Tracking 19831 objects as of 23-Aug-2019
HD Live streaming from Space Station
objects crossing your sky now

COSMOS 2251 DEB

Track COSMOS 2251 DEB now!
10-day predictions


NORAD ID: 39111
Int'l Code: 1993-036BUA
Perigee: 726.0 km
Apogee: 759.1 km
Inclination: 74.0 °
Period: 99.5 minutes
Semi major axis: 7113 km
RCS: 0.003 m2 (small)
Launch date: June 16, 1993
Source: Commonwealth of Independent States (former USSR) (CIS)
Launch site: PLESETSK MISSILE AND SPACE COMPLEX (PKMTR)

Note: This is SATELLITE DEBRIS
aabbcc
Your satellite tracking list
Your tracking list is empty




NASA's NSSDC Master Catalog

Two Line Element Set (TLE):
1 39111U 93036BUA 19234.32804826 +.00000535 +00000-0 +15396-3 0  9998
2 39111 074.0333 116.4650 0023240 029.3753 330.8706 14.47019050346146
Source of the keplerian elements: AFSPC